Time,TemperatureF,DewpointF,PressureIn,WindDirection,WindDirectionDegrees,WindSpeedMPH,WindSpeedGustMPH,Humidity,HourlyPrecipIn,Conditions,Clouds,dailyrainin,SolarRadiationWatts/m^2,SoftwareType,DateUTC
2013-06-22 00:00:00,54.8,52.2,30.12,N/A,-737280,0.0,-999.0,91,0.00,,,0.00,0,Wunderground v.1.15,2013-06-22 07:00:00,
2013-06-22 00:05:00,55.0,53.0,30.12,North,355,0.0,0.0,91,0.00,,,0.00,0,weatherlink.com 1.10,2013-06-22 07:05:00,
2013-06-22 00:10:00,54.8,52.2,30.12,N/A,-737280,0.0,-999.0,91,0.00,,,0.00,0,Wunderground v.1.15,2013-06-22 07:10:00,
2013-06-22 00:15:00,54.8,52.2,30.12,N/A,-737280,0.0,-999.0,91,0.00,,,0.00,0,Wunderground v.1.15,2013-06-22 07:15:00,
2013-06-22 00:20:00,54.4,52.0,30.12,North,355,0.0,0.0,91,0.00,,,0.00,0,weatherlink.com 1.10,2013-06-22 07:20:00,
2013-06-22 00:25:00,54.2,51.9,30.12,N/A,-737280,0.0,-999.0,92,0.00,,,0.00,0,Wunderground v.1.15,2013-06-22 07:25:00,
2013-06-22 00:30:00,54.2,51.9,30.12,N/A,-737280,0.0,-999.0,92,0.00,,,0.00,0,Wunderground v.1.15,2013-06-22 07:30:00,
2013-06-22 00:35:00,53.8,52.0,30.12,North,355,0.0,0.0,92,0.00,,,0.00,0,weatherlink.com 1.10,2013-06-22 07:35:00,
2013-06-22 00:40:00,53.6,51.6,30.12,N/A,-737280,0.0,-999.0,93,0.00,,,0.00,0,Wunderground v.1.15,2013-06-22 07:40:00,
2013-06-22 00:45:00,53.6,51.6,30.12,N/A,-737280,0.0,-999.0,93,0.00,,,0.00,0,Wunderground v.1.15,2013-06-22 07:45:00,
2013-06-22 00:50:00,53.2,51.0,30.12,North,355,0.0,0.0,93,0.00,,,0.00,0,weatherlink.com 1.10,2013-06-22 07:50:00,
2013-06-22 00:55:00,53.1,51.1,30.12,N/A,-737280,0.0,-999.0,93,0.00,,,0.00,0,Wunderground v.1.15,2013-06-22 07:55:00,
2013-06-22 01:00:00,53.1,51.1,30.12,N/A,-737280,0.0,-999.0,93,0.00,,,0.00,0,Wunderground v.1.15,2013-06-22 08:00:00,
2013-06-22 01:05:00,52.9,51.0,30.12,North,355,0.0,0.0,93,0.00,,,0.00,0,weatherlink.com 1.10,2013-06-22 08:05:00,
2013-06-22 01:10:00,52.8,50.8,30.12,N/A,-737280,0.0,-999.0,93,0.00,,,0.00,0,Wunderground v.1.15,2013-06-22 08:10:00,
2013-06-22 01:15:00,52.8,50.8,30.12,N/A,-737280,0.0,-999.0,93,0.00,,,0.00,0,Wunderground v.1.15,2013-06-22 08:15:00,
2013-06-22 01:20:00,52.5,51.0,30.12,North,355,0.0,0.0,93,0.00,,,0.00,0,weatherlink.com 1.10,2013-06-22 08:20:00,
2013-06-22 01:25:00,52.5,50.8,30.11,N/A,-737280,0.0,-999.0,94,0.00,,,0.00,0,Wunderground v.1.15,2013-06-22 08:25:00,
2013-06-22 01:30:00,52.5,50.8,30.11,N/A,-737280,0.0,-999.0,94,0.00,,,0.00,0,Wunderground v.1.15,2013-06-22 08:30:00,
2013-06-22 01:35:00,52.2,51.0,30.11,North,355,0.0,0.0,94,0.00,,,0.00,0,weatherlink.com 1.10,2013-06-22 08:35:00,
2013-06-22 01:40:00,52.2,50.5,30.10,N/A,-737280,0.0,-999.0,94,0.00,,,0.00,0,Wunderground v.1.15,2013-06-22 08:40:00,
2013-06-22 01:45:00,52.2,50.5,30.10,N/A,-737280,0.0,-999.0,94,0.00,,,0.00,0,Wunderground v.1.15,2013-06-22 08:45:00,
2013-06-22 01:50:00,51.9,50.0,30.11,North,355,0.0,0.0,94,0.00,,,0.00,0,weatherlink.com 1.10,2013-06-22 08:50:00,
2013-06-22 01:55:00,51.9,50.2,30.11,N/A,-737280,0.0,-999.0,94,0.00,,,0.00,0,Wunderground v.1.15,2013-06-22 08:55:00,
2013-06-22 02:00:00,51.9,50.2,30.11,N/A,-737280,0.0,-999.0,94,0.00,,,0.00,0,Wunderground v.1.15,2013-06-22 09:00:00,
2013-06-22 02:05:00,51.7,50.0,30.11,North,355,0.0,0.0,94,0.00,,,0.00,0,weatherlink.com 1.10,2013-06-22 09:05:00,
2013-06-22 02:10:00,51.7,50.3,30.11,N/A,-737280,0.0,-999.0,95,0.00,,,0.00,0,Wunderground v.1.15,2013-06-22 09:10:00,
2013-06-22 02:15:00,51.7,50.3,30.11,N/A,-737280,0.0,-999.0,95,0.00,,,0.00,0,Wunderground v.1.15,2013-06-22 09:15:00,
2013-06-22 02:20:00,51.5,50.0,30.11,North,355,0.0,0.0,95,0.00,,,0.00,0,weatherlink.com 1.10,2013-06-22 09:20:00,
2013-06-22 02:25:00,51.5,50.1,30.11,N/A,-737280,0.0,-999.0,95,0.00,,,0.00,0,Wunderground v.1.15,2013-06-22 09:25:00,
2013-06-22 02:30:00,51.5,50.1,30.11,N/A,-737280,0.0,-999.0,95,0.00,,,0.00,0,Wunderground v.1.15,2013-06-22 09:30:00,
2013-06-22 02:35:00,51.4,50.0,30.11,North,355,0.0,0.0,95,0.00,,,0.00,0,weatherlink.com 1.10,2013-06-22 09:35:00,
2013-06-22 02:40:00,51.4,50.0,30.10,N/A,-737280,0.0,-999.0,95,0.00,,,0.00,0,Wunderground v.1.15,2013-06-22 09:40:00,
2013-06-22 02:45:00,51.4,50.0,30.10,N/A,-737280,0.0,-999.0,95,0.00,,,0.00,0,Wunderground v.1.15,2013-06-22 09:45:00,
2013-06-22 02:50:00,51.2,50.0,30.11,North,355,0.0,0.0,95,0.00,,,0.00,0,weatherlink.com 1.10,2013-06-22 09:50:00,
2013-06-22 02:55:00,51.2,49.8,30.10,N/A,-737280,0.0,-999.0,95,0.00,,,0.00,0,Wunderground v.1.15,2013-06-22 09:55:00,
2013-06-22 03:00:00,51.2,49.8,30.10,N/A,-737280,0.0,-999.0,95,0.00,,,0.00,0,Wunderground v.1.15,2013-06-22 10:00:00,
2013-06-22 03:05:00,51.2,50.0,30.10,North,10,0.0,1.0,95,0.00,,,0.00,0,weatherlink.com 1.10,2013-06-22 10:05:00,
2013-06-22 03:10:00,51.1,49.7,30.10,North,0,0.0,-999.0,95,0.00,,,0.00,0,Wunderground v.1.15,2013-06-22 10:10:00,
2013-06-22 03:15:00,51.1,49.7,30.10,North,0,0.0,-999.0,95,0.00,,,0.00,0,Wunderground v.1.15,2013-06-22 10:15:00,
2013-06-22 03:20:00,50.8,50.0,30.10,North,10,0.0,0.0,95,0.00,,,0.00,0,weatherlink.com 1.10,2013-06-22 10:20:00,
2013-06-22 03:25:00,50.8,49.4,30.09,N/A,-737280,0.0,-999.0,95,0.00,,,0.00,0,Wunderground v.1.15,2013-06-22 10:25:00,
2013-06-22 03:30:00,50.8,49.4,30.09,N/A,-737280,0.0,-999.0,95,0.00,,,0.00,0,Wunderground v.1.15,2013-06-22 10:30:00,
2013-06-22 03:35:00,50.6,49.0,30.09,North,10,0.0,0.0,95,0.00,,,0.00,0,weatherlink.com 1.10,2013-06-22 10:35:00,
2013-06-22 03:40:00,50.6,49.2,30.09,North,0,0.0,-999.0,95,0.00,,,0.00,0,Wunderground v.1.15,2013-06-22 10:40:00,
2013-06-22 03:45:00,50.6,49.2,30.09,North,0,0.0,-999.0,95,0.00,,,0.00,0,Wunderground v.1.15,2013-06-22 10:45:00,
2013-06-22 03:50:00,50.5,49.0,30.09,North,11,0.0,0.0,95,0.00,,,0.00,0,weatherlink.com 1.10,2013-06-22 10:50:00,
2013-06-22 03:55:00,50.4,49.0,30.09,N/A,-737280,0.0,-999.0,95,0.00,,,0.00,0,Wunderground v.1.15,2013-06-22 10:55:00,
2013-06-22 04:00:00,50.4,49.0,30.09,N/A,-737280,0.0,-999.0,95,0.00,,,0.00,0,Wunderground v.1.15,2013-06-22 11:00:00,
2013-06-22 04:05:00,50.2,49.0,30.09,North,11,0.0,0.0,95,0.00,,,0.00,0,weatherlink.com 1.10,2013-06-22 11:05:00,
2013-06-22 04:10:00,50.2,49.1,30.09,N/A,-737280,0.0,-999.0,96,0.00,,,0.00,0,Wunderground v.1.15,2013-06-22 11:10:00,
2013-06-22 04:15:00,50.2,49.1,30.09,N/A,-737280,0.0,-999.0,96,0.00,,,0.00,0,Wunderground v.1.15,2013-06-22 11:15:00,
2013-06-22 04:20:00,50.3,49.0,30.09,North,11,0.0,0.0,96,0.00,,,0.00,0,weatherlink.com 1.10,2013-06-22 11:20:00,
2013-06-22 04:25:00,50.2,49.1,30.09,N/A,-737280,0.0,-999.0,96,0.00,,,0.00,0,Wunderground v.1.15,2013-06-22 11:25:00,
2013-06-22 04:30:00,50.2,49.1,30.09,N/A,-737280,0.0,-999.0,96,0.00,,,0.00,0,Wunderground v.1.15,2013-06-22 11:30:00,
2013-06-22 04:35:00,50.1,49.0,30.09,North,11,0.0,0.0,96,0.00,,,0.00,0,weatherlink.com 1.10,2013-06-22 11:35:00,
2013-06-22 04:40:00,50.0,48.9,30.08,N/A,-737280,0.0,-999.0,96,0.00,,,0.00,0,Wunderground v.1.15,2013-06-22 11:40:00,
2013-06-22 04:45:00,50.0,48.9,30.08,N/A,-737280,0.0,-999.0,96,0.00,,,0.00,0,Wunderground v.1.15,2013-06-22 11:45:00,
2013-06-22 04:50:00,50.0,49.0,30.08,North,11,0.0,0.0,96,0.00,,,0.00,0,weatherlink.com 1.10,2013-06-22 11:50:00,
2013-06-22 04:55:00,49.9,48.8,30.08,N/A,-737280,0.0,-999.0,96,0.00,,,0.00,0,Wunderground v.1.15,2013-06-22 11:55:00,
2013-06-22 05:00:00,49.9,48.8,30.08,N/A,-737280,0.0,-999.0,96,0.00,,,0.00,0,Wunderground v.1.15,2013-06-22 12:00:00,
2013-06-22 05:05:00,49.9,49.0,30.08,North,11,0.0,0.0,96,0.00,,,0.00,0,weatherlink.com 1.10,2013-06-22 12:05:00,
2013-06-22 05:10:00,50.0,48.9,30.08,N/A,-737280,0.0,-999.0,96,0.00,,,0.00,3,Wunderground v.1.15,2013-06-22 12:10:00,
2013-06-22 05:15:00,50.0,48.9,30.08,N/A,-737280,0.0,-999.0,96,0.00,,,0.00,3,Wunderground v.1.15,2013-06-22 12:15:00,
2013-06-22 05:20:00,50.1,49.0,30.07,North,11,0.0,0.0,96,0.00,,,0.00,7,weatherlink.com 1.10,2013-06-22 12:20:00,
2013-06-22 05:25:00,50.0,48.9,30.08,N/A,-737280,0.0,-999.0,96,0.00,,,0.00,9,Wunderground v.1.15,2013-06-22 12:25:00,
2013-06-22 05:30:00,50.0,48.9,30.08,N/A,-737280,0.0,-999.0,96,0.00,,,0.00,9,Wunderground v.1.15,2013-06-22 12:30:00,
2013-06-22 05:35:00,49.6,49.0,30.07,North,11,0.0,0.0,96,0.00,,,0.00,16,weatherlink.com 1.10,2013-06-22 12:35:00,
2013-06-22 05:40:00,49.5,48.4,30.08,N/A,-737280,0.0,-999.0,96,0.00,,,0.00,19,Wunderground v.1.15,2013-06-22 12:40:00,
2013-06-22 05:45:00,49.5,48.4,30.08,N/A,-737280,0.0,-999.0,96,0.00,,,0.00,19,Wunderground v.1.15,2013-06-22 12:45:00,
2013-06-22 05:50:00,49.3,48.0,30.08,North,11,0.0,1.0,96,0.00,,,0.00,23,weatherlink.com 1.10,2013-06-22 12:50:00,
2013-06-22 05:55:00,49.3,48.2,30.08,North,0,0.0,-999.0,96,0.00,,,0.00,25,Wunderground v.1.15,2013-06-22 12:55:00,
2013-06-22 06:00:00,49.3,48.2,30.08,North,0,0.0,-999.0,96,0.00,,,0.00,25,Wunderground v.1.15,2013-06-22 13:00:00,
2013-06-22 06:05:00,49.3,48.0,30.08,North,11,0.0,0.0,96,0.00,,,0.00,33,weatherlink.com 1.10,2013-06-22 13:05:00,
2013-06-22 06:10:00,49.2,48.1,30.08,N/A,-737280,0.0,-999.0,96,0.00,,,0.00,31,Wunderground v.1.15,2013-06-22 13:10:00,
2013-06-22 06:15:00,49.2,48.1,30.08,N/A,-737280,0.0,-999.0,96,0.00,,,0.00,31,Wunderground v.1.15,2013-06-22 13:15:00,
2013-06-22 06:20:00,49.1,48.0,30.08,North,11,0.0,0.0,96,0.00,,,0.00,23,weatherlink.com 1.10,2013-06-22 13:20:00,
2013-06-22 06:25:00,49.1,48.0,30.08,N/A,-737280,0.0,-999.0,96,0.00,,,0.00,31,Wunderground v.1.15,2013-06-22 13:25:00,
2013-06-22 06:30:00,49.1,48.0,30.08,N/A,-737280,0.0,-999.0,96,0.00,,,0.00,31,Wunderground v.1.15,2013-06-22 13:30:00,
2013-06-22 06:35:00,49.2,48.0,30.07,North,11,0.0,0.0,96,0.00,,,0.00,53,weatherlink.com 1.10,2013-06-22 13:35:00,
2013-06-22 06:40:00,49.3,48.2,30.08,N/A,-737280,0.0,-999.0,96,0.00,,,0.00,42,Wunderground v.1.15,2013-06-22 13:40:00,
2013-06-22 06:45:00,49.3,48.2,30.08,N/A,-737280,0.0,-999.0,96,0.00,,,0.00,42,Wunderground v.1.15,2013-06-22 13:45:00,
2013-06-22 06:50:00,49.4,49.0,30.08,North,11,0.0,0.0,97,0.00,,,0.00,69,weatherlink.com 1.10,2013-06-22 13:50:00,
2013-06-22 06:55:00,49.6,48.8,30.07,North,0,0.0,-999.0,97,0.00,,,0.00,47,Wunderground v.1.15,2013-06-22 13:55:00,
2013-06-22 07:00:00,49.6,48.8,30.07,North,0,0.0,-999.0,97,0.00,,,0.00,47,Wunderground v.1.15,2013-06-22 14:00:00,
2013-06-22 07:05:00,50.4,50.0,30.07,NNE,15,1.0,2.0,97,0.00,,,0.00,62,weatherlink.com 1.10,2013-06-22 14:05:00,
2013-06-22 07:10:00,50.6,49.8,30.07,East,90,0.0,-999.0,97,0.00,,,0.00,63,Wunderground v.1.15,2013-06-22 14:10:00,
2013-06-22 07:15:00,50.6,49.8,30.07,East,90,0.0,-999.0,97,0.00,,,0.00,63,Wunderground v.1.15,2013-06-22 14:15:00,
2013-06-22 07:20:00,51.8,51.0,30.07,East,83,0.0,1.0,98,0.00,,,0.00,100,weatherlink.com 1.10,2013-06-22 14:20:00,
2013-06-22 07:25:00,51.9,51.1,30.07,East,90,0.0,-999.0,97,0.00,,,0.00,97,Wunderground v.1.15,2013-06-22 14:25:00,
2013-06-22 07:30:00,51.9,51.1,30.07,East,90,0.0,-999.0,97,0.00,,,0.00,97,Wunderground v.1.15,2013-06-22 14:30:00,
2013-06-22 07:35:00,53.1,52.0,30.07,East,83,0.0,1.0,97,0.00,,,0.00,151,weatherlink.com 1.10,2013-06-22 14:35:00,
2013-06-22 07:40:00,53.4,52.6,30.07,East,90,0.0,-999.0,97,0.00,,,0.00,133,Wunderground v.1.15,2013-06-22 14:40:00,
2013-06-22 07:45:00,53.4,52.6,30.07,East,90,0.0,-999.0,97,0.00,,,0.00,133,Wunderground v.1.15,2013-06-22 14:45:00,
2013-06-22 07:50:00,54.6,54.0,30.07,East,83,0.0,1.0,96,0.00,,,0.00,127,weatherlink.com 1.10,2013-06-22 14:50:00,
2013-06-22 07:55:00,54.9,53.2,30.06,East,90,0.0,-999.0,94,0.00,,,0.00,241,Wunderground v.1.15,2013-06-22 14:55:00,
2013-06-22 08:00:00,54.9,53.2,30.06,East,90,0.0,-999.0,94,0.00,,,0.00,241,Wunderground v.1.15,2013-06-22 15:00:00,
2013-06-22 08:05:00,56.2,54.0,30.06,ESE,106,1.0,2.0,93,0.00,,,0.00,341,weatherlink.com 1.10,2013-06-22 15:05:00,
2013-06-22 08:10:00,56.5,53.9,30.06,ESE,113,0.0,-999.0,91,0.00,,,0.00,308,Wunderground v.1.15,2013-06-22 15:10:00,
2013-06-22 08:15:00,56.5,53.9,30.06,ESE,113,0.0,-999.0,91,0.00,,,0.00,308,Wunderground v.1.15,2013-06-22 15:15:00,
2013-06-22 08:20:00,56.5,53.9,30.06,ESE,113,0.0,-999.0,91,0.00,,,0.00,308,Wunderground v.1.15,2013-06-22 15:20:00,
2013-06-22 08:21:00,57.3,55.0,30.06,ESE,106,0.0,2.0,91,0.00,,,0.00,341,weatherlink.com 1.10,2013-06-22 15:21:00,
2013-06-22 08:25:00,57.5,54.0,30.06,ESE,113,0.0,-999.0,88,0.00,,,0.00,366,Wunderground v.1.15,2013-06-22 15:25:00,
2013-06-22 08:30:00,57.5,54.0,30.06,ESE,113,0.0,-999.0,88,0.00,,,0.00,366,Wunderground v.1.15,2013-06-22 15:30:00,
2013-06-22 08:35:00,57.5,54.0,30.06,ESE,113,0.0,-999.0,88,0.00,,,0.00,366,Wunderground v.1.15,2013-06-22 15:35:00,
2013-06-22 08:36:00,58.8,55.0,30.06,ESE,106,0.0,1.0,87,0.00,,,0.00,422,weatherlink.com 1.10,2013-06-22 15:36:00,
2013-06-22 08:40:00,59.3,54.5,30.06,SE,135,0.0,-999.0,84,0.00,,,0.00,423,Wunderground v.1.15,2013-06-22 15:40:00,
2013-06-22 08:45:00,59.3,54.5,30.06,SE,135,0.0,-999.0,84,0.00,,,0.00,423,Wunderground v.1.15,2013-06-22 15:45:00,
2013-06-22 08:50:00,59.3,54.5,30.06,SE,135,0.0,-999.0,84,0.00,,,0.00,423,Wunderground v.1.15,2013-06-22 15:50:00,
2013-06-22 08:51:00,60.3,56.0,30.05,SE,139,0.0,1.0,84,0.00,,,0.00,457,weatherlink.com 1.10,2013-06-22 15:51:00,
2013-06-22 08:55:00,60.5,54.3,30.06,SSE,158,0.0,-999.0,80,0.00,,,0.00,467,Wunderground v.1.15,2013-06-22 15:55:00,
2013-06-22 09:00:00,60.5,54.3,30.06,SSE,158,0.0,-999.0,80,0.00,,,0.00,467,Wunderground v.1.15,2013-06-22 16:00:00,
2013-06-22 09:05:00,60.5,54.3,30.06,SSE,158,0.0,-999.0,80,0.00,,,0.00,467,Wunderground v.1.15,2013-06-22 16:05:00,
2013-06-22 09:06:00,61.9,55.0,30.05,WSW,240,1.0,2.0,78,0.00,,,0.00,497,weatherlink.com 1.10,2013-06-22 16:06:00,
2013-06-22 09:10:00,62.2,54.9,30.05,SSE,158,0.0,-999.0,77,0.00,,,0.00,505,Wunderground v.1.15,2013-06-22 16:10:00,
2013-06-22 09:15:00,62.2,54.9,30.05,SSE,158,0.0,-999.0,77,0.00,,,0.00,505,Wunderground v.1.15,2013-06-22 16:15:00,
2013-06-22 09:20:00,62.2,54.9,30.05,SSE,158,0.0,-999.0,77,0.00,,,0.00,505,Wunderground v.1.15,2013-06-22 16:20:00,
2013-06-22 09:21:00,63.6,56.0,30.05,ESE,108,3.0,3.0,75,0.00,,,0.00,534,weatherlink.com 1.10,2013-06-22 16:21:00,
2013-06-22 09:25:00,63.8,55.7,30.04,SSE,158,1.0,-999.0,75,0.00,,,0.00,542,Wunderground v.1.15,2013-06-22 16:25:00,
2013-06-22 09:30:00,63.8,55.7,30.04,SSE,158,1.0,-999.0,75,0.00,,,0.00,542,Wunderground v.1.15,2013-06-22 16:30:00,
2013-06-22 09:35:00,63.8,55.7,30.04,SSE,158,1.0,-999.0,75,0.00,,,0.00,542,Wunderground v.1.15,2013-06-22 16:35:00,
2013-06-22 09:36:00,64.3,56.0,30.04,South,181,3.0,3.0,75,0.00,,,0.00,571,weatherlink.com 1.10,2013-06-22 16:36:00,
2013-06-22 09:40:00,64.4,55.6,30.04,ESE,113,1.0,-999.0,73,0.00,,,0.00,578,Wunderground v.1.15,2013-06-22 16:40:00,
2013-06-22 09:45:00,64.4,55.6,30.04,ESE,113,1.0,-999.0,73,0.00,,,0.00,578,Wunderground v.1.15,2013-06-22 16:45:00,
2013-06-22 09:50:00,64.4,55.6,30.04,ESE,113,1.0,-999.0,73,0.00,,,0.00,578,Wunderground v.1.15,2013-06-22 16:50:00,
2013-06-22 09:51:00,65.0,57.0,30.04,WNW,286,1.0,4.0,74,0.00,,,0.00,605,weatherlink.com 1.10,2013-06-22 16:51:00,
2013-06-22 09:55:00,65.1,56.2,30.04,ESE,113,1.0,-999.0,73,0.00,,,0.00,612,Wunderground v.1.15,2013-06-22 16:55:00,
2013-06-22 10:00:00,65.1,56.2,30.04,ESE,113,1.0,-999.0,73,0.00,,,0.00,612,Wunderground v.1.15,2013-06-22 17:00:00,
2013-06-22 10:05:00,65.1,56.2,30.04,ESE,113,1.0,-999.0,73,0.00,,,0.00,612,Wunderground v.1.15,2013-06-22 17:05:00,
2013-06-22 10:06:00,66.2,57.0,30.04,ESE,113,0.0,3.0,73,0.00,,,0.00,642,weatherlink.com 1.10,2013-06-22 17:06:00,
2013-06-22 10:10:00,66.4,55.9,30.03,SE,135,1.0,-999.0,69,0.00,,,0.00,647,Wunderground v.1.15,2013-06-22 17:10:00,
2013-06-22 10:15:00,66.4,55.9,30.03,SE,135,1.0,-999.0,69,0.00,,,0.00,647,Wunderground v.1.15,2013-06-22 17:15:00,
2013-06-22 10:20:00,66.4,55.9,30.03,SE,135,1.0,-999.0,69,0.00,,,0.00,647,Wunderground v.1.15,2013-06-22 17:20:00,
2013-06-22 10:21:00,67.1,57.0,30.04,SE,146,0.0,2.0,69,0.00,,,0.00,673,weatherlink.com 1.10,2013-06-22 17:21:00,
2013-06-22 10:25:00,67.4,56.9,30.02,SE,135,1.0,-999.0,69,0.00,,,0.00,679,Wunderground v.1.15,2013-06-22 17:25:00,
2013-06-22 10:30:00,67.4,56.9,30.02,SE,135,1.0,-999.0,69,0.00,,,0.00,679,Wunderground v.1.15,2013-06-22 17:30:00,
2013-06-22 10:35:00,67.4,56.9,30.02,SE,135,1.0,-999.0,69,0.00,,,0.00,679,Wunderground v.1.15,2013-06-22 17:35:00,
2013-06-22 10:36:00,68.2,57.0,30.02,South,184,1.0,3.0,68,0.00,,,0.00,708,weatherlink.com 1.10,2013-06-22 17:36:00,
2013-06-22 10:40:00,68.0,58.2,30.02,WNW,293,1.0,-999.0,71,0.00,,,0.00,722,Wunderground v.1.15,2013-06-22 17:40:00,
2013-06-22 10:45:00,68.0,58.2,30.02,WNW,293,1.0,-999.0,71,0.00,,,0.00,722,Wunderground v.1.15,2013-06-22 17:45:00,
2013-06-22 10:50:00,68.0,58.2,30.02,WNW,293,1.0,-999.0,71,0.00,,,0.00,722,Wunderground v.1.15,2013-06-22 17:50:00,
2013-06-22 10:51:00,68.4,57.0,30.02,ESE,111,1.0,3.0,68,0.00,,,0.00,766,weatherlink.com 1.10,2013-06-22 17:51:00,
2013-06-22 10:55:00,68.4,55.7,30.02,ESE,113,1.0,-999.0,64,0.00,,,0.00,775,Wunderground v.1.15,2013-06-22 17:55:00,
2013-06-22 11:00:00,68.4,55.7,30.02,ESE,113,1.0,-999.0,64,0.00,,,0.00,775,Wunderground v.1.15,2013-06-22 18:00:00,
2013-06-22 11:05:00,68.4,55.7,30.02,ESE,113,1.0,-999.0,64,0.00,,,0.00,775,Wunderground v.1.15,2013-06-22 18:05:00,
2013-06-22 11:06:00,68.0,56.0,30.02,NW,324,2.0,7.0,65,0.00,,,0.00,817,weatherlink.com 1.10,2013-06-22 18:06:00,
2013-06-22 11:10:00,68.1,55.9,30.02,NW,315,2.0,-999.0,65,0.00,,,0.00,826,Wunderground v.1.15,2013-06-22 18:10:00,
2013-06-22 11:15:00,68.1,55.9,30.02,NW,315,2.0,-999.0,65,0.00,,,0.00,826,Wunderground v.1.15,2013-06-22 18:15:00,
2013-06-22 11:20:00,68.1,55.9,30.02,NW,315,2.0,-999.0,65,0.00,,,0.00,826,Wunderground v.1.15,2013-06-22 18:20:00,
2013-06-22 11:21:00,67.2,55.0,30.02,ESE,105,2.0,5.0,64,0.00,,,0.00,824,weatherlink.com 1.10,2013-06-22 18:21:00,
2013-06-22 11:25:00,67.7,55.5,30.01,ESE,113,1.0,-999.0,65,0.00,,,0.00,822,Wunderground v.1.15,2013-06-22 18:25:00,
2013-06-22 11:30:00,67.7,55.5,30.01,ESE,113,1.0,-999.0,65,0.00,,,0.00,822,Wunderground v.1.15,2013-06-22 18:30:00,
2013-06-22 11:35:00,67.7,55.5,30.01,ESE,113,1.0,-999.0,65,0.00,,,0.00,822,Wunderground v.1.15,2013-06-22 18:35:00,
2013-06-22 11:36:00,69.2,56.0,30.01,ESE,115,1.0,2.0,63,0.00,,,0.00,817,weatherlink.com 1.10,2013-06-22 18:36:00,
2013-06-22 11:40:00,69.3,56.6,30.01,ESE,113,1.0,-999.0,64,0.00,,,0.00,844,Wunderground v.1.15,2013-06-22 18:40:00,
2013-06-22 11:45:00,69.3,56.6,30.01,ESE,113,1.0,-999.0,64,0.00,,,0.00,844,Wunderground v.1.15,2013-06-22 18:45:00,
2013-06-22 11:50:00,69.3,56.6,30.01,ESE,113,1.0,-999.0,64,0.00,,,0.00,844,Wunderground v.1.15,2013-06-22 18:50:00,
2013-06-22 11:51:00,69.2,55.0,30.01,West,281,3.0,3.0,62,0.00,,,0.00,844,weatherlink.com 1.10,2013-06-22 18:51:00,
2013-06-22 11:55:00,69.1,58.1,30.01,NW,315,1.0,-999.0,68,0.00,,,0.00,838,Wunderground v.1.15,2013-06-22 18:55:00,
2013-06-22 12:00:00,69.1,58.1,30.01,NW,315,1.0,-999.0,68,0.00,,,0.00,838,Wunderground v.1.15,2013-06-22 19:00:00,
2013-06-22 12:05:00,69.1,58.1,30.01,NW,315,1.0,-999.0,68,0.00,,,0.00,838,Wunderground v.1.15,2013-06-22 19:05:00,
2013-06-22 12:06:00,69.4,57.0,30.01,ESE,114,3.0,4.0,64,0.00,,,0.00,846,weatherlink.com 1.10,2013-06-22 19:06:00,
2013-06-22 12:10:00,69.7,55.6,30.00,ESE,113,2.0,-999.0,61,0.00,,,0.00,847,Wunderground v.1.15,2013-06-22 19:10:00,
2013-06-22 12:15:00,69.7,55.6,30.00,ESE,113,2.0,-999.0,61,0.00,,,0.00,847,Wunderground v.1.15,2013-06-22 19:15:00,
2013-06-22 12:20:00,69.7,55.6,30.00,ESE,113,2.0,-999.0,61,0.00,,,0.00,847,Wunderground v.1.15,2013-06-22 19:20:00,
2013-06-22 12:21:00,70.9,57.0,30.00,NW,305,2.0,4.0,61,0.00,,,0.00,846,weatherlink.com 1.10,2013-06-22 19:21:00,
2013-06-22 12:25:00,70.5,56.4,30.00,NW,315,1.0,-999.0,61,0.00,,,0.00,851,Wunderground v.1.15,2013-06-22 19:25:00,
2013-06-22 12:30:00,70.5,56.4,30.00,NW,315,1.0,-999.0,61,0.00,,,0.00,851,Wunderground v.1.15,2013-06-22 19:30:00,
2013-06-22 12:35:00,70.5,56.4,30.00,NW,315,1.0,-999.0,61,0.00,,,0.00,851,Wunderground v.1.15,2013-06-22 19:35:00,
2013-06-22 12:36:00,70.7,58.0,30.00,SE,136,0.0,4.0,64,0.00,,,0.00,865,weatherlink.com 1.10,2013-06-22 19:36:00,
2013-06-22 12:40:00,70.8,56.2,29.99,NW,315,1.0,-999.0,60,0.00,,,0.00,862,Wunderground v.1.15,2013-06-22 19:40:00,
2013-06-22 12:45:00,70.8,56.2,29.99,NW,315,1.0,-999.0,60,0.00,,,0.00,862,Wunderground v.1.15,2013-06-22 19:45:00,
2013-06-22 12:50:00,70.8,56.2,29.99,NW,315,1.0,-999.0,60,0.00,,,0.00,862,Wunderground v.1.15,2013-06-22 19:50:00,
2013-06-22 12:52:00,71.4,57.0,29.99,ESE,119,1.0,4.0,60,0.00,,,0.00,870,weatherlink.com 1.10,2013-06-22 19:52:00,
2013-06-22 12:55:00,71.6,57.0,29.99,NW,315,1.0,-999.0,60,0.00,,,0.00,871,Wunderground v.1.15,2013-06-22 19:55:00,
2013-06-22 13:00:00,71.6,57.0,29.99,NW,315,1.0,-999.0,60,0.00,,,0.00,871,Wunderground v.1.15,2013-06-22 20:00:00,
2013-06-22 13:05:00,71.6,57.0,29.99,NW,315,1.0,-999.0,60,0.00,,,0.00,871,Wunderground v.1.15,2013-06-22 20:05:00,
2013-06-22 13:07:00,71.9,54.0,29.99,WNW,298,3.0,6.0,54,0.00,,,0.00,874,weatherlink.com 1.10,2013-06-22 20:07:00,
2013-06-22 13:10:00,71.9,54.3,29.98,WNW,293,2.0,-999.0,54,0.00,,,0.00,874,Wunderground v.1.15,2013-06-22 20:10:00,
2013-06-22 13:15:00,71.9,54.3,29.98,WNW,293,2.0,-999.0,54,0.00,,,0.00,874,Wunderground v.1.15,2013-06-22 20:15:00,
2013-06-22 13:20:00,71.9,54.3,29.98,WNW,293,2.0,-999.0,54,0.00,,,0.00,874,Wunderground v.1.15,2013-06-22 20:20:00,
2013-06-22 13:22:00,72.7,52.0,29.98,ESE,123,1.0,5.0,49,0.00,,,0.00,872,weatherlink.com 1.10,2013-06-22 20:22:00,
2013-06-22 13:25:00,72.9,56.8,29.98,ESE,113,1.0,-999.0,57,0.00,,,0.00,873,Wunderground v.1.15,2013-06-22 20:25:00,
2013-06-22 13:30:00,72.9,56.8,29.98,ESE,113,1.0,-999.0,57,0.00,,,0.00,873,Wunderground v.1.15,2013-06-22 20:30:00,
2013-06-22 13:35:00,72.9,56.8,29.98,ESE,113,1.0,-999.0,57,0.00,,,0.00,873,Wunderground v.1.15,2013-06-22 20:35:00,
2013-06-22 13:37:00,73.8,57.0,29.98,WNW,288,0.0,4.0,56,0.00,,,0.00,874,weatherlink.com 1.10,2013-06-22 20:37:00,
2013-06-22 13:40:00,74.0,53.1,29.98,WNW,293,1.0,-999.0,48,0.00,,,0.00,874,Wunderground v.1.15,2013-06-22 20:40:00,
2013-06-22 13:45:00,74.0,53.1,29.98,WNW,293,1.0,-999.0,48,0.00,,,0.00,874,Wunderground v.1.15,2013-06-22 20:45:00,
2013-06-22 13:50:00,74.0,53.1,29.98,WNW,293,1.0,-999.0,48,0.00,,,0.00,874,Wunderground v.1.15,2013-06-22 20:50:00,
2013-06-22 13:52:00,74.4,56.0,29.98,South,175,1.0,3.0,52,0.00,,,0.00,870,weatherlink.com 1.10,2013-06-22 20:52:00,
2013-06-22 13:55:00,74.6,52.4,29.97,South,180,1.0,-999.0,46,0.00,,,0.00,869,Wunderground v.1.15,2013-06-22 20:55:00,
2013-06-22 14:00:00,74.6,52.4,29.97,South,180,1.0,-999.0,46,0.00,,,0.00,869,Wunderground v.1.15,2013-06-22 21:00:00,
2013-06-22 14:05:00,74.6,52.4,29.97,South,180,1.0,-999.0,46,0.00,,,0.00,869,Wunderground v.1.15,2013-06-22 21:05:00,
2013-06-22 14:07:00,75.0,56.0,29.97,West,267,0.0,3.0,52,0.00,,,0.00,870,weatherlink.com 1.10,2013-06-22 21:07:00,
2013-06-22 14:10:00,75.1,54.1,29.96,NNW,338,1.0,-999.0,48,0.00,,,0.00,868,Wunderground v.1.15,2013-06-22 21:10:00,
2013-06-22 14:15:00,75.1,54.1,29.96,NNW,338,1.0,-999.0,48,0.00,,,0.00,868,Wunderground v.1.15,2013-06-22 21:15:00,
2013-06-22 14:20:00,75.1,54.1,29.96,NNW,338,1.0,-999.0,48,0.00,,,0.00,868,Wunderground v.1.15,2013-06-22 21:20:00,
2013-06-22 14:22:00,75.3,54.0,29.96,East,94,0.0,4.0,47,0.00,,,0.00,868,weatherlink.com 1.10,2013-06-22 21:22:00,
2013-06-22 14:25:00,75.6,53.9,29.96,East,90,1.0,-999.0,47,0.00,,,0.00,874,Wunderground v.1.15,2013-06-22 21:25:00,
2013-06-22 14:30:00,75.6,53.9,29.96,East,90,1.0,-999.0,47,0.00,,,0.00,874,Wunderground v.1.15,2013-06-22 21:30:00,
2013-06-22 14:35:00,75.6,53.9,29.96,East,90,1.0,-999.0,47,0.00,,,0.00,874,Wunderground v.1.15,2013-06-22 21:35:00,
2013-06-22 14:37:00,76.0,54.0,29.96,East,94,1.0,5.0,47,0.00,,,0.00,837,weatherlink.com 1.10,2013-06-22 21:37:00,
2013-06-22 14:40:00,76.0,56.6,29.95,East,90,1.0,-999.0,51,0.00,,,0.00,838,Wunderground v.1.15,2013-06-22 21:40:00,
2013-06-22 14:45:00,76.0,56.6,29.95,East,90,1.0,-999.0,51,0.00,,,0.00,838,Wunderground v.1.15,2013-06-22 21:45:00,
2013-06-22 14:50:00,76.0,56.6,29.95,East,90,1.0,-999.0,51,0.00,,,0.00,838,Wunderground v.1.15,2013-06-22 21:50:00,
2013-06-22 14:52:00,75.7,56.0,29.95,NNW,345,3.0,6.0,50,0.00,,,0.00,821,weatherlink.com 1.10,2013-06-22 21:52:00,
2013-06-22 14:55:00,75.2,58.9,29.95,NW,315,2.0,-999.0,57,0.00,,,0.00,816,Wunderground v.1.15,2013-06-22 21:55:00,
2013-06-22 15:00:00,75.2,58.9,29.95,NW,315,2.0,-999.0,57,0.00,,,0.00,816,Wunderground v.1.15,2013-06-22 22:00:00,
2013-06-22 15:05:00,75.2,58.9,29.95,NW,315,2.0,-999.0,57,0.00,,,0.00,816,Wunderground v.1.15,2013-06-22 22:05:00,
2013-06-22 15:07:00,73.3,56.0,29.95,West,281,2.0,7.0,54,0.00,,,0.00,802,weatherlink.com 1.10,2013-06-22 22:07:00,
2013-06-22 15:10:00,73.2,56.6,29.95,WNW,293,3.0,-999.0,56,0.00,,,0.00,796,Wunderground v.1.15,2013-06-22 22:10:00,
2013-06-22 15:15:00,73.2,56.6,29.95,WNW,293,3.0,-999.0,56,0.00,,,0.00,796,Wunderground v.1.15,2013-06-22 22:15:00,
2013-06-22 15:20:00,73.2,56.6,29.95,WNW,293,3.0,-999.0,56,0.00,,,0.00,796,Wunderground v.1.15,2013-06-22 22:20:00,
2013-06-22 15:22:00,72.8,56.0,29.95,WNW,296,5.0,8.0,56,0.00,,,0.00,779,weatherlink.com 1.10,2013-06-22 22:22:00,
2013-06-22 15:25:00,73.0,56.9,29.93,WNW,293,3.0,-999.0,57,0.00,,,0.00,775,Wunderground v.1.15,2013-06-22 22:25:00,
2013-06-22 15:30:00,73.0,56.9,29.93,WNW,293,3.0,-999.0,57,0.00,,,0.00,775,Wunderground v.1.15,2013-06-22 22:30:00,
2013-06-22 15:35:00,73.0,56.9,29.93,WNW,293,3.0,-999.0,57,0.00,,,0.00,775,Wunderground v.1.15,2013-06-22 22:35:00,
2013-06-22 15:37:00,73.4,56.0,29.93,SSE,159,1.0,6.0,54,0.00,,,0.00,763,weatherlink.com 1.10,2013-06-22 22:37:00,
2013-06-22 15:40:00,74.1,56.4,29.93,WNW,293,1.0,-999.0,54,0.00,,,0.00,757,Wunderground v.1.15,2013-06-22 22:40:00,
2013-06-22 15:45:00,74.1,56.4,29.93,WNW,293,1.0,-999.0,54,0.00,,,0.00,757,Wunderground v.1.15,2013-06-22 22:45:00,
2013-06-22 15:50:00,74.1,56.4,29.93,WNW,293,1.0,-999.0,54,0.00,,,0.00,757,Wunderground v.1.15,2013-06-22 22:50:00,
2013-06-22 15:52:00,75.3,56.0,29.93,WNW,303,0.0,7.0,52,0.00,,,0.00,643,weatherlink.com 1.10,2013-06-22 22:52:00,
2013-06-22 15:55:00,75.2,56.4,29.93,WNW,293,2.0,-999.0,52,0.00,,,0.00,636,Wunderground v.1.15,2013-06-22 22:55:00,
2013-06-22 16:00:00,75.2,56.4,29.93,WNW,293,2.0,-999.0,52,0.00,,,0.00,636,Wunderground v.1.15,2013-06-22 23:00:00,
2013-06-22 16:05:00,75.2,56.4,29.93,WNW,293,2.0,-999.0,52,0.00,,,0.00,636,Wunderground v.1.15,2013-06-22 23:05:00,
2013-06-22 16:07:00,73.9,56.0,29.93,NW,323,4.0,6.0,54,0.00,,,0.00,471,weatherlink.com 1.10,2013-06-22 23:07:00,
2013-06-22 16:10:00,73.8,56.6,29.92,WNW,293,2.0,-999.0,55,0.00,,,0.00,532,Wunderground v.1.15,2013-06-22 23:10:00,
2013-06-22 16:15:00,73.8,56.6,29.92,WNW,293,2.0,-999.0,55,0.00,,,0.00,532,Wunderground v.1.15,2013-06-22 23:15:00,
2013-06-22 16:20:00,73.8,56.6,29.92,WNW,293,2.0,-999.0,55,0.00,,,0.00,532,Wunderground v.1.15,2013-06-22 23:20:00,
2013-06-22 16:22:00,74.0,56.0,29.92,WNW,299,3.0,6.0,54,0.00,,,0.00,717,weatherlink.com 1.10,2013-06-22 23:22:00,
2013-06-22 16:25:00,73.7,56.0,29.92,WNW,293,3.0,-999.0,54,0.00,,,0.00,662,Wunderground v.1.15,2013-06-22 23:25:00,
2013-06-22 16:30:00,73.7,56.0,29.92,WNW,293,3.0,-999.0,54,0.00,,,0.00,662,Wunderground v.1.15,2013-06-22 23:30:00,
2013-06-22 16:35:00,73.7,56.0,29.92,WNW,293,3.0,-999.0,54,0.00,,,0.00,662,Wunderground v.1.15,2013-06-22 23:35:00,
2013-06-22 16:37:00,73.9,57.0,29.92,NW,314,4.0,7.0,55,0.00,,,0.00,522,weatherlink.com 1.10,2013-06-22 23:37:00,
2013-06-22 16:40:00,74.0,56.3,29.91,NW,315,2.0,-999.0,54,0.00,,,0.00,575,Wunderground v.1.15,2013-06-22 23:40:00,
2013-06-22 16:45:00,74.0,56.3,29.91,NW,315,2.0,-999.0,54,0.00,,,0.00,575,Wunderground v.1.15,2013-06-22 23:45:00,
2013-06-22 16:50:00,74.0,56.3,29.91,NW,315,2.0,-999.0,54,0.00,,,0.00,575,Wunderground v.1.15,2013-06-22 23:50:00,
2013-06-22 16:52:00,74.3,56.0,29.91,West,269,3.0,5.0,53,0.00,,,0.00,613,weatherlink.com 1.10,2013-06-22 23:52:00,
2013-06-22 16:55:00,74.3,56.6,29.91,WNW,293,3.0,-999.0,54,0.00,,,0.00,616,Wunderground v.1.15,2013-06-22 23:55:00,
2013-06-22 17:00:00,74.3,56.6,29.91,WNW,293,3.0,-999.0,54,0.00,,,0.00,616,Wunderground v.1.15,2013-06-23 00:00:00,
2013-06-22 17:05:00,74.3,56.6,29.91,WNW,293,3.0,-999.0,54,0.00,,,0.00,616,Wunderground v.1.15,2013-06-23 00:05:00,
2013-06-22 17:07:00,74.3,57.0,29.91,WNW,300,0.0,7.0,55,0.00,,,0.00,598,weatherlink.com 1.10,2013-06-23 00:07:00,
2013-06-22 17:10:00,74.4,54.0,29.90,WNW,293,1.0,-999.0,49,0.00,,,0.00,587,Wunderground v.1.15,2013-06-23 00:10:00,
2013-06-22 17:15:00,74.4,54.0,29.90,WNW,293,1.0,-999.0,49,0.00,,,0.00,587,Wunderground v.1.15,2013-06-23 00:15:00,
2013-06-22 17:20:00,74.4,54.0,29.90,WNW,293,1.0,-999.0,49,0.00,,,0.00,587,Wunderground v.1.15,2013-06-23 00:20:00,
2013-06-22 17:22:00,74.8,57.0,29.90,NW,308,3.0,7.0,54,0.00,,,0.00,552,weatherlink.com 1.10,2013-06-23 00:22:00,
2013-06-22 17:25:00,75.0,56.7,29.90,WNW,293,2.0,-999.0,53,0.00,,,0.00,533,Wunderground v.1.15,2013-06-23 00:25:00,
2013-06-22 17:30:00,75.0,56.7,29.90,WNW,293,2.0,-999.0,53,0.00,,,0.00,533,Wunderground v.1.15,2013-06-23 00:30:00,
2013-06-22 17:35:00,75.0,56.7,29.90,WNW,293,2.0,-999.0,53,0.00,,,0.00,533,Wunderground v.1.15,2013-06-23 00:35:00,
2013-06-22 17:37:00,75.4,54.0,29.90,SSW,207,0.0,4.0,48,0.00,,,0.00,462,weatherlink.com 1.10,2013-06-23 00:37:00,
2013-06-22 17:40:00,75.5,54.4,29.89,NW,315,1.0,-999.0,48,0.00,,,0.00,455,Wunderground v.1.15,2013-06-23 00:40:00,
2013-06-22 17:45:00,75.5,54.4,29.89,NW,315,1.0,-999.0,48,0.00,,,0.00,455,Wunderground v.1.15,2013-06-23 00:45:00,
2013-06-22 17:50:00,75.5,54.4,29.89,NW,315,1.0,-999.0,48,0.00,,,0.00,455,Wunderground v.1.15,2013-06-23 00:50:00,
2013-06-22 17:52:00,76.2,54.0,29.89,WNW,301,1.0,5.0,46,0.00,,,0.00,425,weatherlink.com 1.10,2013-06-23 00:52:00,
2013-06-22 17:55:00,76.0,53.7,29.89,WNW,293,2.0,-999.0,46,0.00,,,0.00,457,Wunderground v.1.15,2013-06-23 00:55:00,
2013-06-22 18:00:00,76.0,53.7,29.89,WNW,293,2.0,-999.0,46,0.00,,,0.00,457,Wunderground v.1.15,2013-06-23 01:00:00,
2013-06-22 18:05:00,76.0,53.7,29.89,WNW,293,2.0,-999.0,46,0.00,,,0.00,457,Wunderground v.1.15,2013-06-23 01:05:00,
2013-06-22 18:07:00,75.7,56.0,29.89,WNW,288,2.0,5.0,51,0.00,,,0.00,350,weatherlink.com 1.10,2013-06-23 01:07:00,
2013-06-22 18:10:00,75.5,54.4,29.88,WNW,293,2.0,-999.0,48,0.00,,,0.00,400,Wunderground v.1.15,2013-06-23 01:10:00,
2013-06-22 18:15:00,75.5,54.4,29.88,WNW,293,2.0,-999.0,48,0.00,,,0.00,400,Wunderground v.1.15,2013-06-23 01:15:00,
2013-06-22 18:20:00,75.5,54.4,29.88,WNW,293,2.0,-999.0,48,0.00,,,0.00,400,Wunderground v.1.15,2013-06-23 01:20:00,
2013-06-22 18:22:00,74.8,53.0,29.88,WNW,292,1.0,6.0,47,0.00,,,0.00,401,weatherlink.com 1.10,2013-06-23 01:22:00,
2013-06-22 18:25:00,74.7,54.3,29.88,NW,315,2.0,-999.0,49,0.00,,,0.00,397,Wunderground v.1.15,2013-06-23 01:25:00,
2013-06-22 18:30:00,74.7,54.3,29.88,NW,315,2.0,-999.0,49,0.00,,,0.00,397,Wunderground v.1.15,2013-06-23 01:30:00,
2013-06-22 18:35:00,74.7,54.3,29.88,NW,315,2.0,-999.0,49,0.00,,,0.00,397,Wunderground v.1.15,2013-06-23 01:35:00,
2013-06-22 18:37:00,74.7,54.0,29.88,WNW,294,1.0,6.0,48,0.00,,,0.00,320,weatherlink.com 1.10,2013-06-23 01:37:00,
2013-06-22 18:40:00,74.5,52.9,29.87,WNW,293,3.0,-999.0,47,0.00,,,0.00,341,Wunderground v.1.15,2013-06-23 01:40:00,
2013-06-22 18:45:00,74.5,52.9,29.87,WNW,293,3.0,-999.0,47,0.00,,,0.00,341,Wunderground v.1.15,2013-06-23 01:45:00,
2013-06-22 18:50:00,74.5,52.9,29.87,WNW,293,3.0,-999.0,47,0.00,,,0.00,341,Wunderground v.1.15,2013-06-23 01:50:00,
2013-06-22 18:52:00,73.6,52.0,29.87,NW,321,4.0,6.0,47,0.00,,,0.00,308,weatherlink.com 1.10,2013-06-23 01:52:00,
2013-06-22 18:55:00,73.7,53.3,29.87,WNW,293,3.0,-999.0,49,0.00,,,0.00,303,Wunderground v.1.15,2013-06-23 01:55:00,
2013-06-22 19:00:00,73.7,53.3,29.87,WNW,293,3.0,-999.0,49,0.00,,,0.00,303,Wunderground v.1.15,2013-06-23 02:00:00,
2013-06-22 19:05:00,73.7,53.3,29.87,WNW,293,3.0,-999.0,49,0.00,,,0.00,303,Wunderground v.1.15,2013-06-23 02:05:00,
2013-06-22 19:07:00,73.7,52.0,29.87,West,279,2.0,6.0,47,0.00,,,0.00,264,weatherlink.com 1.10,2013-06-23 02:07:00,
2013-06-22 19:10:00,73.8,52.3,29.87,West,270,2.0,-999.0,47,0.00,,,0.00,264,Wunderground v.1.15,2013-06-23 02:10:00,
2013-06-22 19:15:00,73.8,52.3,29.87,West,270,2.0,-999.0,47,0.00,,,0.00,264,Wunderground v.1.15,2013-06-23 02:15:00,
2013-06-22 19:20:00,73.8,52.3,29.87,West,270,2.0,-999.0,47,0.00,,,0.00,264,Wunderground v.1.15,2013-06-23 02:20:00,
2013-06-22 19:22:00,73.8,54.0,29.87,West,280,3.0,6.0,51,0.00,,,0.00,272,weatherlink.com 1.10,2013-06-23 02:22:00,
2013-06-22 19:25:00,73.9,53.0,29.87,WNW,293,1.0,-999.0,48,0.00,,,0.00,263,Wunderground v.1.15,2013-06-23 02:25:00,
2013-06-22 19:30:00,73.9,53.0,29.87,WNW,293,1.0,-999.0,48,0.00,,,0.00,263,Wunderground v.1.15,2013-06-23 02:30:00,
2013-06-22 19:35:00,73.9,53.0,29.87,WNW,293,1.0,-999.0,48,0.00,,,0.00,263,Wunderground v.1.15,2013-06-23 02:35:00,
2013-06-22 19:37:00,74.5,52.0,29.87,NNW,341,0.0,4.0,46,0.00,,,0.00,220,weatherlink.com 1.10,2013-06-23 02:37:00,
2013-06-22 19:40:00,74.5,54.6,29.87,NNW,338,1.0,-999.0,50,0.00,,,0.00,207,Wunderground v.1.15,2013-06-23 02:40:00,
2013-06-22 19:45:00,74.5,54.6,29.87,NNW,338,1.0,-999.0,50,0.00,,,0.00,207,Wunderground v.1.15,2013-06-23 02:45:00,
2013-06-22 19:50:00,74.5,54.6,29.87,NNW,338,1.0,-999.0,50,0.00,,,0.00,207,Wunderground v.1.15,2013-06-23 02:50:00,
2013-06-22 19:52:00,74.4,53.0,29.87,NW,310,1.0,3.0,48,0.00,,,0.00,144,weatherlink.com 1.10,2013-06-23 02:52:00,
2013-06-22 19:55:00,74.2,55.4,29.87,NW,315,1.0,-999.0,52,0.00,,,0.00,139,Wunderground v.1.15,2013-06-23 02:55:00,
2013-06-22 20:00:00,74.2,55.4,29.87,NW,315,1.0,-999.0,52,0.00,,,0.00,139,Wunderground v.1.15,2013-06-23 03:00:00,
2013-06-22 20:05:00,74.2,55.4,29.87,NW,315,1.0,-999.0,52,0.00,,,0.00,139,Wunderground v.1.15,2013-06-23 03:05:00,
2013-06-22 20:07:00,73.2,53.0,29.87,WNW,287,1.0,4.0,49,0.00,,,0.00,109,weatherlink.com 1.10,2013-06-23 03:07:00,
2013-06-22 20:10:00,73.2,54.0,29.87,WNW,293,1.0,-999.0,51,0.00,,,0.00,104,Wunderground v.1.15,2013-06-23 03:10:00,
2013-06-22 20:15:00,73.2,54.0,29.87,WNW,293,1.0,-999.0,51,0.00,,,0.00,104,Wunderground v.1.15,2013-06-23 03:15:00,
2013-06-22 20:20:00,73.2,54.0,29.87,WNW,293,1.0,-999.0,51,0.00,,,0.00,104,Wunderground v.1.15,2013-06-23 03:20:00,
2013-06-22 20:22:00,72.6,53.0,29.87,WNW,292,0.0,2.0,51,0.00,,,0.00,35,weatherlink.com 1.10,2013-06-23 03:22:00,
2013-06-22 20:25:00,72.3,54.2,29.87,WNW,293,1.0,-999.0,53,0.00,,,0.00,52,Wunderground v.1.15,2013-06-23 03:25:00,
2013-06-22 20:30:00,72.3,54.2,29.87,WNW,293,1.0,-999.0,53,0.00,,,0.00,52,Wunderground v.1.15,2013-06-23 03:30:00,
2013-06-22 20:35:00,72.3,54.2,29.87,WNW,293,1.0,-999.0,53,0.00,,,0.00,52,Wunderground v.1.15,2013-06-23 03:35:00,
2013-06-22 20:37:00,71.0,54.0,29.87,WNW,292,0.0,2.0,55,0.00,,,0.00,23,weatherlink.com 1.10,2013-06-23 03:37:00,
2013-06-22 20:40:00,70.8,54.8,29.87,WNW,293,0.0,-999.0,57,0.00,,,0.00,27,Wunderground v.1.15,2013-06-23 03:40:00,
2013-06-22 20:45:00,70.8,54.8,29.87,WNW,293,0.0,-999.0,57,0.00,,,0.00,27,Wunderground v.1.15,2013-06-23 03:45:00,
2013-06-22 20:50:00,70.8,54.8,29.87,WNW,293,0.0,-999.0,57,0.00,,,0.00,27,Wunderground v.1.15,2013-06-23 03:50:00,
2013-06-22 20:52:00,69.6,54.0,29.87,WNW,292,1.0,1.0,58,0.00,,,0.00,21,weatherlink.com 1.10,2013-06-23 03:52:00,
2013-06-22 20:55:00,69.5,55.9,29.87,WNW,293,0.0,-999.0,62,0.00,,,0.00,18,Wunderground v.1.15,2013-06-23 03:55:00,
2013-06-22 21:00:00,69.5,55.9,29.87,WNW,293,0.0,-999.0,62,0.00,,,0.00,18,Wunderground v.1.15,2013-06-23 04:00:00,
2013-06-22 21:05:00,69.5,55.9,29.87,WNW,293,0.0,-999.0,62,0.00,,,0.00,18,Wunderground v.1.15,2013-06-23 04:05:00,
2013-06-22 21:07:00,68.5,55.0,29.87,WNW,292,0.0,0.0,62,0.00,,,0.00,7,weatherlink.com 1.10,2013-06-23 04:07:00,
2013-06-22 21:10:00,68.4,56.2,29.87,WNW,293,0.0,-999.0,65,0.00,,,0.00,7,Wunderground v.1.15,2013-06-23 04:10:00,
2013-06-22 21:15:00,68.4,56.2,29.87,WNW,293,0.0,-999.0,65,0.00,,,0.00,7,Wunderground v.1.15,2013-06-23 04:15:00,
2013-06-22 21:20:00,68.4,56.2,29.87,WNW,293,0.0,-999.0,65,0.00,,,0.00,7,Wunderground v.1.15,2013-06-23 04:20:00,
2013-06-22 21:22:00,67.6,55.0,29.87,WNW,292,0.0,0.0,65,0.00,,,0.00,0,weatherlink.com 1.10,2013-06-23 04:22:00,
2013-06-22 21:25:00,67.6,55.0,29.87,WNW,293,0.0,-999.0,64,0.00,,,0.00,0,Wunderground v.1.15,2013-06-23 04:25:00,
2013-06-22 21:30:00,67.6,55.0,29.87,WNW,293,0.0,-999.0,64,0.00,,,0.00,0,Wunderground v.1.15,2013-06-23 04:30:00,
2013-06-22 21:35:00,67.6,55.0,29.87,WNW,293,0.0,-999.0,64,0.00,,,0.00,0,Wunderground v.1.15,2013-06-23 04:35:00,
2013-06-22 21:37:00,67.2,55.0,29.87,WNW,292,0.0,0.0,65,0.00,,,0.00,0,weatherlink.com 1.10,2013-06-23 04:37:00,
2013-06-22 21:40:00,67.2,55.9,29.87,N/A,-737280,0.0,-999.0,67,0.00,,,0.00,0,Wunderground v.1.15,2013-06-23 04:40:00,
2013-06-22 21:45:00,67.2,55.9,29.87,N/A,-737280,0.0,-999.0,67,0.00,,,0.00,0,Wunderground v.1.15,2013-06-23 04:45:00,
2013-06-22 21:50:00,67.2,55.9,29.87,N/A,-737280,0.0,-999.0,67,0.00,,,0.00,0,Wunderground v.1.15,2013-06-23 04:50:00,
2013-06-22 21:52:00,66.7,56.0,29.87,NW,304,0.0,1.0,68,0.00,,,0.00,0,weatherlink.com 1.10,2013-06-23 04:52:00,
2013-06-22 21:55:00,66.7,56.6,29.87,WNW,293,0.0,-999.0,70,0.00,,,0.00,0,Wunderground v.1.15,2013-06-23 04:55:00,
2013-06-22 22:00:00,66.7,56.6,29.87,WNW,293,0.0,-999.0,70,0.00,,,0.00,0,Wunderground v.1.15,2013-06-23 05:00:00,
2013-06-22 22:05:00,66.7,56.6,29.87,WNW,293,0.0,-999.0,70,0.00,,,0.00,0,Wunderground v.1.15,2013-06-23 05:05:00,
2013-06-22 22:07:00,66.4,56.0,29.87,NW,304,0.0,0.0,70,0.00,,,0.00,0,weatherlink.com 1.10,2013-06-23 05:07:00,
2013-06-22 22:10:00,66.4,56.7,29.87,NW,315,0.0,-999.0,71,0.00,,,0.00,0,Wunderground v.1.15,2013-06-23 05:10:00,
2013-06-22 22:15:00,66.4,56.7,29.87,NW,315,0.0,-999.0,71,0.00,,,0.00,0,Wunderground v.1.15,2013-06-23 05:15:00,
2013-06-22 22:20:00,66.4,56.7,29.87,NW,315,0.0,-999.0,71,0.00,,,0.00,0,Wunderground v.1.15,2013-06-23 05:20:00,
2013-06-22 22:22:00,65.8,57.0,29.87,NW,304,0.0,1.0,73,0.00,,,0.00,0,weatherlink.com 1.10,2013-06-23 05:22:00,
2013-06-22 22:25:00,65.7,57.2,29.86,N/A,-737280,0.0,-999.0,74,0.00,,,0.00,0,Wunderground v.1.15,2013-06-23 05:25:00,
2013-06-22 22:30:00,65.7,57.2,29.86,N/A,-737280,0.0,-999.0,74,0.00,,,0.00,0,Wunderground v.1.15,2013-06-23 05:30:00,
2013-06-22 22:35:00,65.7,57.2,29.86,N/A,-737280,0.0,-999.0,74,0.00,,,0.00,0,Wunderground v.1.15,2013-06-23 05:35:00,
2013-06-22 22:37:00,65.0,57.0,29.86,NW,304,0.0,0.0,75,0.00,,,0.00,0,weatherlink.com 1.10,2013-06-23 05:37:00,
2013-06-22 22:40:00,64.9,57.2,29.86,N/A,-737280,0.0,-999.0,76,0.00,,,0.00,0,Wunderground v.1.15,2013-06-23 05:40:00,
2013-06-22 22:45:00,64.9,57.2,29.86,N/A,-737280,0.0,-999.0,76,0.00,,,0.00,0,Wunderground v.1.15,2013-06-23 05:45:00,
2013-06-22 22:50:00,64.9,57.2,29.86,N/A,-737280,0.0,-999.0,76,0.00,,,0.00,0,Wunderground v.1.15,2013-06-23 05:50:00,
2013-06-22 22:52:00,64.3,57.0,29.86,NW,304,0.0,0.0,77,0.00,,,0.00,0,weatherlink.com 1.10,2013-06-23 05:52:00,
2013-06-22 22:55:00,64.2,57.5,29.86,N/A,-737280,0.0,-999.0,79,0.00,,,0.00,0,Wunderground v.1.15,2013-06-23 05:55:00,
2013-06-22 23:00:00,64.2,57.5,29.86,N/A,-737280,0.0,-999.0,79,0.00,,,0.00,0,Wunderground v.1.15,2013-06-23 06:00:00,
2013-06-22 23:05:00,64.2,57.5,29.86,N/A,-737280,0.0,-999.0,79,0.00,,,0.00,0,Wunderground v.1.15,2013-06-23 06:05:00,
2013-06-22 23:07:00,63.5,57.0,29.86,NW,304,0.0,0.0,80,0.00,,,0.00,0,weatherlink.com 1.10,2013-06-23 06:07:00,
2013-06-22 23:10:00,63.4,57.5,29.85,N/A,-737280,0.0,-999.0,81,0.00,,,0.00,0,Wunderground v.1.15,2013-06-23 06:10:00,
2013-06-22 23:15:00,63.4,57.5,29.85,N/A,-737280,0.0,-999.0,81,0.00,,,0.00,0,Wunderground v.1.15,2013-06-23 06:15:00,
2013-06-22 23:20:00,63.4,57.5,29.85,N/A,-737280,0.0,-999.0,81,0.00,,,0.00,0,Wunderground v.1.15,2013-06-23 06:20:00,
2013-06-22 23:22:00,62.9,57.0,29.85,NW,304,0.0,0.0,82,0.00,,,0.00,0,weatherlink.com 1.10,2013-06-23 06:22:00,
2013-06-22 23:25:00,62.8,57.6,29.85,N/A,-737280,0.0,-999.0,83,0.00,,,0.00,0,Wunderground v.1.15,2013-06-23 06:25:00,
2013-06-22 23:30:00,62.8,57.6,29.85,N/A,-737280,0.0,-999.0,83,0.00,,,0.00,0,Wunderground v.1.15,2013-06-23 06:30:00,
2013-06-22 23:35:00,62.8,57.6,29.85,N/A,-737280,0.0,-999.0,83,0.00,,,0.00,0,Wunderground v.1.15,2013-06-23 06:35:00,
2013-06-22 23:37:00,62.4,57.0,29.85,NW,304,0.0,0.0,82,0.00,,,0.00,0,weatherlink.com 1.10,2013-06-23 06:37:00,
2013-06-22 23:40:00,62.4,56.8,29.85,N/A,-737280,0.0,-999.0,82,0.00,,,0.00,0,Wunderground v.1.15,2013-06-23 06:40:00,
2013-06-22 23:45:00,62.4,56.8,29.85,N/A,-737280,0.0,-999.0,82,0.00,,,0.00,0,Wunderground v.1.15,2013-06-23 06:45:00,
2013-06-22 23:50:00,62.4,56.8,29.85,N/A,-737280,0.0,-999.0,82,0.00,,,0.00,0,Wunderground v.1.15,2013-06-23 06:50:00,
2013-06-22 23:52:00,62.3,57.0,29.85,NW,304,0.0,0.0,83,0.00,,,0.00,0,weatherlink.com 1.10,2013-06-23 06:52:00,
2013-06-22 23:55:00,62.3,57.1,29.84,N/A,-737280,0.0,-999.0,83,0.00,,,0.00,0,Wunderground v.1.15,2013-06-23 06:55:00,